Time,TemperatureF,DewpointF,PressureIn,WindDirection,WindDirectionDegrees,WindSpeedMPH,WindSpeedGustMPH,Humidity,HourlyPrecipIn,Conditions,Clouds,dailyrainin,SoftwareType,DateUTC
2013-05-05 00:00:00,43.6,43.1,30.04,NNW,337,1.0,7.0,98,0.00,,,0.88,Wunderground v.1.15,2013-05-05 05:00:00,
2013-05-05 00:05:00,43.6,43.1,30.05,North,355,1.0,7.0,98,0.00,,,0.00,Wunderground v.1.15,2013-05-05 05:05:00,
2013-05-05 00:10:00,43.5,43.0,30.05,NNW,342,0.0,0.0,98,0.00,,,0.00,Wunderground v.1.15,2013-05-05 05:10:00,
2013-05-05 00:15:00,43.5,43.0,30.05,NNW,337,0.0,0.0,98,0.00,,,0.00,Wunderground v.1.15,2013-05-05 05:15:00,
2013-05-05 00:20:00,43.5,43.0,30.05,NE,40,0.0,0.0,98,0.00,,,0.00,Wunderground v.1.15,2013-05-05 05:20:00,
2013-05-05 00:25:00,43.5,43.0,30.05,North,355,0.0,0.0,98,0.00,,,0.00,Wunderground v.1.15,2013-05-05 05:25:00,
2013-05-05 00:30:00,43.5,43.0,30.05,NNW,344,0.0,0.0,98,0.00,,,0.00,Wunderground v.1.15,2013-05-05 05:30:00,
2013-05-05 00:40:00,43.6,43.1,30.06,West,278,0.0,0.0,98,0.00,,,0.00,Wunderground v.1.15,2013-05-05 05:40:00,
2013-05-05 00:45:00,43.6,43.1,30.06,West,279,0.0,0.0,98,0.00,,,0.00,Wunderground v.1.15,2013-05-05 05:45:00,
2013-05-05 00:50:00,43.6,43.1,30.05,North,350,0.0,0.0,98,0.00,,,0.00,Wunderground v.1.15,2013-05-05 05:50:00,
2013-05-05 00:55:00,43.7,42.9,30.05,NNW,348,0.0,0.0,97,0.00,,,0.00,Wunderground v.1.15,2013-05-05 05:55:00,
2013-05-05 01:00:00,43.7,42.9,30.05,NNW,347,0.0,0.0,97,0.00,,,0.00,Wunderground v.1.15,2013-05-05 06:00:00,
2013-05-05 01:05:00,43.8,43.0,30.05,NNW,346,0.0,0.0,97,0.00,,,0.00,Wunderground v.1.15,2013-05-05 06:05:00,
2013-05-05 01:10:00,43.8,43.0,30.05,North,355,0.0,0.0,97,0.00,,,0.00,Wunderground v.1.15,2013-05-05 06:10:00,
2013-05-05 01:15:00,43.8,43.0,30.05,North,355,0.0,0.0,97,0.00,,,0.00,Wunderground v.1.15,2013-05-05 06:15:00,
2013-05-05 01:25:00,43.9,43.1,30.05,NNW,347,0.0,0.0,97,0.00,,,0.00,Wunderground v.1.15,2013-05-05 06:25:00,
2013-05-05 01:35:00,44.0,43.5,30.05,ENE,63,0.0,0.0,98,0.00,,,0.00,Wunderground v.1.15,2013-05-05 06:35:00,
2013-05-05 01:40:00,44.0,43.5,30.05,NE,46,0.0,0.0,98,0.00,,,0.00,Wunderground v.1.15,2013-05-05 06:40:00,
2013-05-05 01:45:00,44.1,43.6,30.05,NE,46,0.0,0.0,98,0.00,,,0.00,Wunderground v.1.15,2013-05-05 06:45:00,
2013-05-05 01:50:00,44.2,43.4,30.04,NNW,344,0.0,0.0,97,0.00,,,0.00,Wunderground v.1.15,2013-05-05 06:50:00,
2013-05-05 01:55:00,44.2,43.4,30.04,NNW,344,0.0,0.0,97,0.00,,,0.00,Wunderground v.1.15,2013-05-05 06:55:00,
2013-05-05 02:00:00,44.3,43.5,30.04,SSW,200,1.0,2.0,97,0.00,,,0.00,Wunderground v.1.15,2013-05-05 07:00:00,
2013-05-05 02:05:00,44.4,43.6,30.04,SSE,157,1.0,2.0,97,0.00,,,0.00,Wunderground v.1.15,2013-05-05 07:05:00,
2013-05-05 02:10:00,44.5,44.0,30.04,SSE,157,0.0,0.0,98,0.00,,,0.00,Wunderground v.1.15,2013-05-05 07:10:00,
2013-05-05 02:15:00,44.5,43.7,30.05,SSE,159,0.0,0.0,97,0.00,,,0.00,Wunderground v.1.15,2013-05-05 07:15:00,
2013-05-05 02:20:00,44.5,43.7,30.05,SSE,159,0.0,0.0,97,0.00,,,0.00,Wunderground v.1.15,2013-05-05 07:20:00,
2013-05-05 02:30:00,44.5,43.7,30.05,SSE,159,0.0,0.0,97,0.00,,,0.00,Wunderground v.1.15,2013-05-05 07:30:00,
2013-05-05 02:35:00,44.5,43.7,30.05,SSE,159,0.0,0.0,97,0.00,,,0.00,Wunderground v.1.15,2013-05-05 07:35:00,
2013-05-05 02:40:00,44.5,43.7,30.04,SSE,159,0.0,0.0,97,0.00,,,0.00,Wunderground v.1.15,2013-05-05 07:40:00,
2013-05-05 02:45:00,44.5,43.7,30.04,SSE,159,0.0,0.0,97,0.00,,,0.00,Wunderground v.1.15,2013-05-05 07:45:00,
2013-05-05 02:50:00,44.5,43.7,30.04,SSE,159,0.0,0.0,97,0.00,,,0.00,Wunderground v.1.15,2013-05-05 07:50:00,
2013-05-05 02:55:00,44.5,43.7,30.04,SSE,159,0.0,0.0,97,0.00,,,0.00,Wunderground v.1.15,2013-05-05 07:55:00,
2013-05-05 03:00:00,44.5,43.7,30.04,SSE,159,0.0,0.0,97,0.00,,,0.00,Wunderground v.1.15,2013-05-05 08:00:00,
2013-05-05 03:05:00,44.5,43.7,30.03,SSE,159,0.0,0.0,97,0.00,,,0.00,Wunderground v.1.15,2013-05-05 08:05:00,
2013-05-05 03:10:00,44.5,43.7,30.03,SSE,159,0.0,0.0,97,0.00,,,0.00,Wunderground v.1.15,2013-05-05 08:10:00,
2013-05-05 03:20:00,44.6,43.8,30.03,NNW,346,0.0,0.0,97,0.00,,,0.00,Wunderground v.1.15,2013-05-05 08:20:00,
2013-05-05 03:25:00,44.6,43.8,30.03,NNW,346,0.0,0.0,97,0.00,,,0.00,Wunderground v.1.15,2013-05-05 08:25:00,
2013-05-05 03:30:00,44.7,43.9,30.03,NNW,336,0.0,0.0,97,0.00,,,0.00,Wunderground v.1.15,2013-05-05 08:30:00,
2013-05-05 03:35:00,44.7,43.9,30.03,NNW,338,0.0,0.0,97,0.00,,,0.00,Wunderground v.1.15,2013-05-05 08:35:00,
2013-05-05 03:40:00,44.7,43.9,30.03,NNW,338,0.0,0.0,97,0.00,,,0.00,Wunderground v.1.15,2013-05-05 08:40:00,
2013-05-05 03:50:00,44.7,43.9,30.03,NNW,339,0.0,0.0,97,0.00,,,0.00,Wunderground v.1.15,2013-05-05 08:50:00,
2013-05-05 03:55:00,44.7,43.9,30.04,NNW,339,0.0,0.0,97,0.00,,,0.00,Wunderground v.1.15,2013-05-05 08:55:00,
2013-05-05 04:00:00,44.7,43.9,30.03,NNW,338,0.0,0.0,97,0.00,,,0.00,Wunderground v.1.15,2013-05-05 09:00:00,
2013-05-05 04:05:00,44.6,43.8,30.03,NNW,346,0.0,0.0,97,0.00,,,0.00,Wunderground v.1.15,2013-05-05 09:05:00,
2013-05-05 04:10:00,44.6,43.8,30.03,NW,316,0.0,0.0,97,0.00,,,0.00,Wunderground v.1.15,2013-05-05 09:10:00,
2013-05-05 04:20:00,44.5,43.7,30.03,North,355,0.0,0.0,97,0.00,,,0.00,Wunderground v.1.15,2013-05-05 09:20:00,
2013-05-05 04:25:00,44.4,43.6,30.04,North,355,0.0,0.0,97,0.00,,,0.00,Wunderground v.1.15,2013-05-05 09:25:00,
2013-05-05 04:30:00,44.4,43.6,30.03,NW,321,0.0,0.0,97,0.00,,,0.00,Wunderground v.1.15,2013-05-05 09:30:00,
2013-05-05 04:35:00,44.3,43.5,30.03,NW,309,0.0,0.0,97,0.00,,,0.00,Wunderground v.1.15,2013-05-05 09:35:00,
2013-05-05 04:40:00,44.3,43.5,30.04,NW,309,0.0,0.0,97,0.00,,,0.00,Wunderground v.1.15,2013-05-05 09:40:00,
2013-05-05 04:45:00,44.2,43.4,30.03,NW,318,0.0,0.0,97,0.00,,,0.00,Wunderground v.1.15,2013-05-05 09:45:00,
2013-05-05 04:50:00,44.1,43.3,30.03,North,349,0.0,0.0,97,0.00,,,0.00,Wunderground v.1.15,2013-05-05 09:50:00,
2013-05-05 05:00:00,44.1,43.3,30.03,NW,323,0.0,0.0,97,0.00,,,0.00,Wunderground v.1.15,2013-05-05 10:00:00,
2013-05-05 05:10:00,44.1,43.3,30.04,NW,323,0.0,0.0,97,0.00,,,0.00,Wunderground v.1.15,2013-05-05 10:10:00,
2013-05-05 05:15:00,44.2,43.4,30.04,NW,323,0.0,0.0,97,0.00,,,0.00,Wunderground v.1.15,2013-05-05 10:15:00,
2013-05-05 05:20:00,44.2,43.4,30.04,NW,323,0.0,0.0,97,0.00,,,0.00,Wunderground v.1.15,2013-05-05 10:20:00,
2013-05-05 05:25:00,44.3,43.5,30.03,NW,323,0.0,0.0,97,0.00,,,0.00,Wunderground v.1.15,2013-05-05 10:25:00,
2013-05-05 05:30:00,44.3,43.5,30.04,NNW,334,0.0,0.0,97,0.00,,,0.00,Wunderground v.1.15,2013-05-05 10:30:00,
2013-05-05 05:35:00,44.3,43.5,30.04,NNW,335,0.0,0.0,97,0.00,,,0.00,Wunderground v.1.15,2013-05-05 10:35:00,
2013-05-05 05:40:00,44.4,43.6,30.04,NNW,335,0.0,0.0,97,0.00,,,0.00,Wunderground v.1.15,2013-05-05 10:40:00,
2013-05-05 05:45:00,44.4,43.6,30.04,NNW,335,0.0,0.0,97,0.00,,,0.00,Wunderground v.1.15,2013-05-05 10:45:00,
2013-05-05 05:55:00,44.4,43.6,30.04,NNW,336,0.0,0.0,97,0.00,,,0.00,Wunderground v.1.15,2013-05-05 10:55:00,
2013-05-05 06:00:00,44.5,44.0,30.04,North,351,0.0,0.0,98,0.00,,,0.00,Wunderground v.1.15,2013-05-05 11:00:00,
2013-05-05 06:05:00,44.5,44.0,30.04,NNW,348,0.0,0.0,98,0.00,,,0.00,Wunderground v.1.15,2013-05-05 11:05:00,
2013-05-05 06:15:00,44.5,43.7,30.04,NNW,348,0.0,2.0,97,0.00,,,0.00,Wunderground v.1.15,2013-05-05 11:15:00,
2013-05-05 06:20:00,44.5,43.7,30.05,North,350,0.0,0.0,97,0.00,,,0.00,Wunderground v.1.15,2013-05-05 11:20:00,
2013-05-05 06:25:00,44.5,43.7,30.05,North,350,0.0,0.0,97,0.00,,,0.00,Wunderground v.1.15,2013-05-05 11:25:00,
2013-05-05 06:30:00,44.5,43.7,30.05,North,349,0.0,0.0,97,0.00,,,0.00,Wunderground v.1.15,2013-05-05 11:30:00,
2013-05-05 06:35:00,44.5,43.7,30.05,NNW,347,0.0,0.0,97,0.00,,,0.00,Wunderground v.1.15,2013-05-05 11:35:00,
2013-05-05 06:40:00,44.5,43.7,30.05,NNW,332,0.0,0.0,97,0.00,,,0.00,Wunderground v.1.15,2013-05-05 11:40:00,
2013-05-05 06:45:00,44.5,44.0,30.05,NNW,339,0.0,0.0,98,0.00,,,0.00,Wunderground v.1.15,2013-05-05 11:45:00,
2013-05-05 06:50:00,44.5,44.0,30.06,ENE,60,0.0,0.0,98,0.00,,,0.00,Wunderground v.1.15,2013-05-05 11:50:00,
2013-05-05 07:00:00,44.6,44.1,30.06,North,355,0.0,0.0,98,0.00,,,0.00,Wunderground v.1.15,2013-05-05 12:00:00,
2013-05-05 07:05:00,44.7,44.2,30.06,NNW,344,0.0,0.0,98,0.00,,,0.00,Wunderground v.1.15,2013-05-05 12:05:00,
2013-05-05 07:10:00,44.7,44.2,30.06,NNW,347,0.0,0.0,98,0.00,,,0.00,Wunderground v.1.15,2013-05-05 12:10:00,
2013-05-05 07:15:00,44.8,44.3,30.06,NW,322,0.0,0.0,98,0.00,,,0.00,Wunderground v.1.15,2013-05-05 12:15:00,
2013-05-05 07:25:00,44.8,44.3,30.06,NNW,327,1.0,2.0,98,0.00,,,0.00,Wunderground v.1.15,2013-05-05 12:25:00,
2013-05-05 07:30:00,44.7,44.2,30.07,North,355,1.0,1.0,98,0.00,,,0.00,Wunderground v.1.15,2013-05-05 12:30:00,
2013-05-05 07:35:00,44.8,44.3,30.07,North,360,1.0,1.0,98,0.00,,,0.00,Wunderground v.1.15,2013-05-05 12:35:00,
2013-05-05 07:40:00,44.9,44.4,30.07,North,355,0.0,0.0,98,0.00,,,0.00,Wunderground v.1.15,2013-05-05 12:40:00,
2013-05-05 07:45:00,44.9,44.4,30.07,North,351,1.0,1.0,98,0.00,,,0.00,Wunderground v.1.15,2013-05-05 12:45:00,
2013-05-05 07:50:00,45.1,44.6,30.07,North,10,1.0,5.0,98,0.00,,,0.00,Wunderground v.1.15,2013-05-05 12:50:00,
2013-05-05 07:55:00,45.1,44.6,30.07,NNW,344,1.0,5.0,98,0.00,,,0.00,Wunderground v.1.15,2013-05-05 12:55:00,
2013-05-05 08:05:00,45.3,44.8,30.07,NNW,338,0.0,5.0,98,0.00,,,0.00,Wunderground v.1.15,2013-05-05 13:05:00,
2013-05-05 08:10:00,45.3,44.8,30.08,NNW,330,1.0,1.0,98,0.00,,,0.00,Wunderground v.1.15,2013-05-05 13:10:00,
2013-05-05 08:15:00,45.3,44.8,30.08,NNW,345,1.0,4.0,98,0.00,,,0.00,Wunderground v.1.15,2013-05-05 13:15:00,
2013-05-05 08:20:00,45.2,44.7,30.08,NNW,331,1.0,1.0,98,0.00,,,0.00,Wunderground v.1.15,2013-05-05 13:20:00,
2013-05-05 08:25:00,45.3,44.8,30.08,NW,313,1.0,1.0,98,0.00,,,0.00,Wunderground v.1.15,2013-05-05 13:25:00,
2013-05-05 08:35:00,45.4,44.9,30.08,WNW,302,0.0,0.0,98,0.00,,,0.00,Wunderground v.1.15,2013-05-05 13:35:00,
2013-05-05 08:40:00,45.5,45.0,30.08,NNW,338,0.0,0.0,98,0.00,,,0.00,Wunderground v.1.15,2013-05-05 13:40:00,
2013-05-05 08:45:00,45.7,45.2,30.08,NNW,337,0.0,0.0,98,0.00,,,0.00,Wunderground v.1.15,2013-05-05 13:45:00,
2013-05-05 08:55:00,46.0,45.5,30.08,NW,318,0.0,0.0,98,0.00,,,0.00,Wunderground v.1.15,2013-05-05 13:55:00,
2013-05-05 09:00:00,46.1,45.6,30.08,NNW,338,1.0,4.0,98,0.00,,,0.00,Wunderground v.1.15,2013-05-05 14:00:00,
2013-05-05 09:05:00,46.0,45.5,30.08,NW,323,2.0,4.0,98,0.00,,,0.00,Wunderground v.1.15,2013-05-05 14:05:00,
2013-05-05 09:10:00,46.4,45.9,30.08,NNW,327,1.0,1.0,98,0.00,,,0.00,Wunderground v.1.15,2013-05-05 14:10:00,
2013-05-05 09:15:00,46.6,46.1,30.08,NNW,327,0.0,1.0,98,0.00,,,0.00,Wunderground v.1.15,2013-05-05 14:15:00,
2013-05-05 09:20:00,46.7,46.2,30.08,NNW,330,0.0,0.0,98,0.00,,,0.00,Wunderground v.1.15,2013-05-05 14:20:00,
2013-05-05 09:25:00,46.8,46.3,30.08,WNW,300,0.0,0.0,98,0.00,,,0.00,Wunderground v.1.15,2013-05-05 14:25:00,
2013-05-05 09:35:00,46.9,46.4,30.08,NW,304,0.0,0.0,98,0.00,,,0.00,Wunderground v.1.15,2013-05-05 14:35:00,
2013-05-05 09:40:00,47.0,46.5,30.08,NNW,334,0.0,0.0,98,0.00,,,0.00,Wunderground v.1.15,2013-05-05 14:40:00,
2013-05-05 09:45:00,47.3,46.8,30.08,NNW,343,0.0,0.0,98,0.00,,,0.00,Wunderground v.1.15,2013-05-05 14:45:00,
2013-05-05 09:50:00,47.6,47.1,30.08,NNW,340,0.0,3.0,98,0.00,,,0.00,Wunderground v.1.15,2013-05-05 14:50:00,
2013-05-05 09:55:00,47.8,47.3,30.08,NW,308,0.0,3.0,98,0.00,,,0.00,Wunderground v.1.15,2013-05-05 14:55:00,
2013-05-05 10:00:00,48.2,47.7,30.08,NNW,333,1.0,1.0,98,0.00,,,0.00,Wunderground v.1.15,2013-05-05 15:00:00,
2013-05-05 10:05:00,48.6,48.1,30.08,NW,314,1.0,1.0,98,0.00,,,0.00,Wunderground v.1.15,2013-05-05 15:05:00,
2013-05-05 10:10:00,48.7,48.2,30.08,NW,321,1.0,1.0,98,0.00,,,0.00,Wunderground v.1.15,2013-05-05 15:10:00,
2013-05-05 10:15:00,48.8,48.3,30.08,NNW,331,0.0,1.0,98,0.00,,,0.00,Wunderground v.1.15,2013-05-05 15:15:00,
2013-05-05 10:20:00,49.0,48.5,30.08,North,349,0.0,0.0,98,0.00,,,0.00,Wunderground v.1.15,2013-05-05 15:20:00,
2013-05-05 10:25:00,49.3,48.8,30.09,NW,304,0.0,2.0,98,0.00,,,0.00,Wunderground v.1.15,2013-05-05 15:25:00,
2013-05-05 10:35:00,49.6,49.1,30.09,NW,326,2.0,3.0,98,0.00,,,0.00,Wunderground v.1.15,2013-05-05 15:35:00,
2013-05-05 10:40:00,49.7,49.2,30.09,NNW,327,2.0,2.0,98,0.00,,,0.00,Wunderground v.1.15,2013-05-05 15:40:00,
2013-05-05 10:45:00,49.8,49.3,30.08,WNW,300,1.0,2.0,98,0.00,,,0.00,Wunderground v.1.15,2013-05-05 15:45:00,
2013-05-05 10:50:00,49.8,49.3,30.08,North,349,1.0,1.0,98,0.00,,,0.00,Wunderground v.1.15,2013-05-05 15:50:00,
2013-05-05 10:55:00,49.7,49.2,30.09,NNW,339,1.0,1.0,98,0.00,,,0.00,Wunderground v.1.15,2013-05-05 15:55:00,
2013-05-05 11:00:00,49.7,49.2,30.09,WNW,303,0.0,0.0,98,0.00,,,0.00,Wunderground v.1.15,2013-05-05 16:00:00,
2013-05-05 11:05:00,49.9,49.4,30.09,WNW,300,1.0,6.0,98,0.00,,,0.00,Wunderground v.1.15,2013-05-05 16:05:00,
2013-05-05 11:10:00,49.8,49.3,30.08,NNW,335,2.0,2.0,98,0.00,,,0.00,Wunderground v.1.15,2013-05-05 16:10:00,
2013-05-05 11:15:00,49.7,48.9,30.08,NW,319,4.0,4.0,97,0.00,,,0.00,Wunderground v.1.15,2013-05-05 16:15:00,
2013-05-05 11:25:00,50.0,49.2,30.08,NW,321,3.0,4.0,97,0.00,,,0.00,Wunderground v.1.15,2013-05-05 16:25:00,
2013-05-05 11:30:00,50.3,49.5,30.08,NNW,344,3.0,4.0,97,0.00,,,0.00,Wunderground v.1.15,2013-05-05 16:30:00,
2013-05-05 11:35:00,50.8,50.0,30.08,NW,311,3.0,4.0,97,0.00,,,0.00,Wunderground v.1.15,2013-05-05 16:35:00,
2013-05-05 11:40:00,51.4,50.6,30.08,NW,309,1.0,1.0,97,0.00,,,0.00,Wunderground v.1.15,2013-05-05 16:40:00,
2013-05-05 11:45:00,52.0,51.2,30.08,NW,306,1.0,1.0,97,0.00,,,0.00,Wunderground v.1.15,2013-05-05 16:45:00,
2013-05-05 11:50:00,52.5,51.7,30.08,NNW,327,2.0,5.0,97,0.00,,,0.00,Wunderground v.1.15,2013-05-05 16:50:00,
2013-05-05 12:00:00,52.7,51.3,30.08,NNW,345,2.0,2.0,95,0.00,,,0.00,Wunderground v.1.15,2013-05-05 17:00:00,
2013-05-05 12:05:00,53.2,52.1,30.08,NNE,17,1.0,2.0,96,0.00,,,0.00,Wunderground v.1.15,2013-05-05 17:05:00,
2013-05-05 12:15:00,54.1,52.4,30.07,WNW,302,0.0,7.0,94,0.00,,,0.00,Wunderground v.1.15,2013-05-05 17:15:00,
2013-05-05 12:20:00,54.3,52.6,30.08,NE,37,1.0,1.0,94,0.00,,,0.00,Wunderground v.1.15,2013-05-05 17:20:00,
2013-05-05 12:25:00,54.4,52.4,30.08,NNW,345,1.0,1.0,93,0.00,,,0.00,Wunderground v.1.15,2013-05-05 17:25:00,
2013-05-05 12:30:00,54.6,52.6,30.08,NNW,333,0.0,6.0,93,0.00,,,0.00,Wunderground v.1.15,2013-05-05 17:30:00,
2013-05-05 12:35:00,54.8,52.5,30.07,NNW,346,1.0,6.0,92,0.00,,,0.00,Wunderground v.1.15,2013-05-05 17:35:00,
2013-05-05 12:40:00,54.9,52.6,30.07,NW,306,1.0,1.0,92,0.00,,,0.00,Wunderground v.1.15,2013-05-05 17:40:00,
2013-05-05 12:45:00,55.3,53.0,30.07,WNW,299,0.0,1.0,92,0.00,,,0.00,Wunderground v.1.15,2013-05-05 17:45:00,
2013-05-05 12:55:00,56.1,53.2,30.07,WNW,297,0.0,0.0,90,0.00,,,0.00,Wunderground v.1.15,2013-05-05 17:55:00,
2013-05-05 13:00:00,56.2,53.3,30.06,West,280,0.0,8.0,90,0.00,,,0.00,Wunderground v.1.15,2013-05-05 18:00:00,
2013-05-05 13:05:00,56.0,52.8,30.06,WNW,300,1.0,8.0,89,0.00,,,0.00,Wunderground v.1.15,2013-05-05 18:05:00,
2013-05-05 13:10:00,56.1,52.9,30.06,NNW,338,1.0,1.0,89,0.00,,,0.00,Wunderground v.1.15,2013-05-05 18:10:00,
2013-05-05 13:15:00,56.4,53.5,30.06,NW,304,1.0,1.0,90,0.00,,,0.00,Wunderground v.1.15,2013-05-05 18:15:00,
2013-05-05 13:20:00,56.8,53.6,30.06,West,277,1.0,4.0,89,0.00,,,0.00,Wunderground v.1.15,2013-05-05 18:20:00,
2013-05-05 13:25:00,57.3,53.8,30.06,WNW,297,1.0,4.0,88,0.00,,,0.00,Wunderground v.1.15,2013-05-05 18:25:00,
2013-05-05 13:30:00,58.1,54.9,30.06,NNW,331,1.0,1.0,89,0.00,,,0.00,Wunderground v.1.15,2013-05-05 18:30:00,
2013-05-05 13:35:00,58.5,54.6,30.06,NNW,333,0.0,1.0,87,0.00,,,0.00,Wunderground v.1.15,2013-05-05 18:35:00,
2013-05-05 13:45:00,60.0,55.8,30.05,North,351,0.0,1.0,86,0.00,,,0.00,Wunderground v.1.15,2013-05-05 18:45:00,
2013-05-05 13:50:00,60.2,55.3,30.05,WNW,298,1.0,1.0,84,0.00,,,0.00,Wunderground v.1.15,2013-05-05 18:50:00,
2013-05-05 13:55:00,60.0,55.5,30.05,WNW,302,1.0,1.0,85,0.00,,,0.00,Wunderground v.1.15,2013-05-05 18:55:00,
2013-05-05 14:00:00,60.3,55.8,30.04,NW,325,1.0,5.0,85,0.00,,,0.00,Wunderground v.1.15,2013-05-05 19:00:00,
2013-05-05 14:05:00,60.8,56.3,30.04,NW,326,1.0,5.0,85,0.00,,,0.00,Wunderground v.1.15,2013-05-05 19:05:00,
2013-05-05 14:10:00,61.1,56.2,30.04,NNW,333,2.0,2.0,84,0.00,,,0.00,Wunderground v.1.15,2013-05-05 19:10:00,
2013-05-05 14:15:00,61.3,56.1,30.04,North,10,1.0,2.0,83,0.00,,,0.00,Wunderground v.1.15,2013-05-05 19:15:00,
2013-05-05 14:20:00,61.7,56.8,30.04,NW,314,1.0,1.0,84,0.00,,,0.00,Wunderground v.1.15,2013-05-05 19:20:00,
2013-05-05 14:25:00,61.9,56.7,30.04,North,11,2.0,2.0,83,0.00,,,0.00,Wunderground v.1.15,2013-05-05 19:25:00,
2013-05-05 14:35:00,62.5,57.3,30.03,NW,304,1.0,2.0,83,0.00,,,0.00,Wunderground v.1.15,2013-05-05 19:35:00,
2013-05-05 14:45:00,62.7,57.1,30.03,NW,311,2.0,5.0,82,0.00,,,0.00,Wunderground v.1.15,2013-05-05 19:45:00,
2013-05-05 14:50:00,63.0,57.1,30.03,NW,306,1.0,1.0,81,0.00,,,0.00,Wunderground v.1.15,2013-05-05 19:50:00,
2013-05-05 14:55:00,63.4,57.5,30.03,WNW,300,1.0,1.0,81,0.00,,,0.00,Wunderground v.1.15,2013-05-05 19:55:00,
2013-05-05 15:00:00,63.7,57.8,30.03,WNW,301,1.0,1.0,81,0.00,,,0.00,Wunderground v.1.15,2013-05-05 20:00:00,
2013-05-05 15:05:00,64.0,58.1,30.03,NNW,339,1.0,7.0,81,0.00,,,0.00,Wunderground v.1.15,2013-05-05 20:05:00,
2013-05-05 15:10:00,64.2,58.2,30.02,NNW,339,2.0,2.0,81,0.00,,,0.00,Wunderground v.1.15,2013-05-05 20:10:00,
2013-05-05 15:15:00,64.6,58.6,30.02,NNW,345,2.0,2.0,81,0.00,,,0.00,Wunderground v.1.15,2013-05-05 20:15:00,
2013-05-05 15:20:00,64.7,58.0,30.02,NNW,348,0.0,0.0,79,0.00,,,0.00,Wunderground v.1.15,2013-05-05 20:20:00,
2013-05-05 15:30:00,64.5,57.8,30.01,NNW,342,1.0,1.0,79,0.00,,,0.00,Wunderground v.1.15,2013-05-05 20:30:00,
2013-05-05 15:35:00,64.7,58.0,30.02,NNW,329,1.0,1.0,79,0.00,,,0.00,Wunderground v.1.15,2013-05-05 20:35:00,
2013-05-05 15:40:00,65.0,58.7,30.01,NNW,343,2.0,2.0,80,0.00,,,0.00,Wunderground v.1.15,2013-05-05 20:40:00,
2013-05-05 15:50:00,64.9,57.9,30.01,NNW,327,0.0,0.0,78,0.00,,,0.00,Wunderground v.1.15,2013-05-05 20:50:00,
2013-05-05 15:55:00,65.0,58.3,30.01,NNW,340,1.0,1.0,79,0.00,,,0.00,Wunderground v.1.15,2013-05-05 20:55:00,
2013-05-05 16:00:00,65.3,57.5,30.01,NW,313,1.0,1.0,76,0.00,,,0.00,Wunderground v.1.15,2013-05-05 21:00:00,
2013-05-05 16:05:00,65.3,57.9,30.00,NW,319,1.0,1.0,77,0.00,,,0.00,Wunderground v.1.15,2013-05-05 21:05:00,
2013-05-05 16:10:00,65.5,58.5,30.01,NW,325,1.0,5.0,78,0.00,,,0.00,Wunderground v.1.15,2013-05-05 21:10:00,
2013-05-05 16:15:00,65.2,58.2,30.00,NW,314,1.0,5.0,78,0.00,,,0.00,Wunderground v.1.15,2013-05-05 21:15:00,
2013-05-05 16:20:00,65.1,57.7,30.00,NW,313,3.0,3.0,77,0.00,,,0.00,Wunderground v.1.15,2013-05-05 21:20:00,
2013-05-05 16:30:00,65.2,57.8,30.00,WNW,302,1.0,1.0,77,0.00,,,0.00,Wunderground v.1.15,2013-05-05 21:30:00,
2013-05-05 16:35:00,65.3,57.9,30.00,NW,309,1.0,7.0,77,0.00,,,0.00,Wunderground v.1.15,2013-05-05 21:35:00,
2013-05-05 16:40:00,65.1,57.3,30.00,NNW,342,2.0,4.0,76,0.00,,,0.00,Wunderground v.1.15,2013-05-05 21:40:00,
2013-05-05 16:45:00,65.0,57.6,30.00,WNW,302,3.0,4.0,77,0.00,,,0.00,Wunderground v.1.15,2013-05-05 21:45:00,
2013-05-05 16:50:00,65.2,57.8,30.01,West,279,2.0,5.0,77,0.00,,,0.00,Wunderground v.1.15,2013-05-05 21:50:00,
2013-05-05 17:00:00,65.2,58.2,30.01,WNW,295,2.0,2.0,78,0.00,,,0.00,Wunderground v.1.15,2013-05-05 22:00:00,
2013-05-05 17:05:00,65.4,58.0,30.01,NNW,346,2.0,2.0,77,0.00,,,0.00,Wunderground v.1.15,2013-05-05 22:05:00,
2013-05-05 17:10:00,65.8,58.0,30.01,WNW,298,2.0,2.0,76,0.00,,,0.00,Wunderground v.1.15,2013-05-05 22:10:00,
2013-05-05 17:15:00,66.0,57.8,30.01,NNW,342,2.0,5.0,75,0.00,,,0.00,Wunderground v.1.15,2013-05-05 22:15:00,
2013-05-05 17:25:00,66.1,57.9,30.01,NNW,327,3.0,4.0,75,0.00,,,0.00,Wunderground v.1.15,2013-05-05 22:25:00,
2013-05-05 17:30:00,65.9,57.4,30.01,NW,304,2.0,2.0,74,0.00,,,0.00,Wunderground v.1.15,2013-05-05 22:30:00,
2013-05-05 17:35:00,65.6,57.1,30.01,WNW,292,1.0,2.0,74,0.00,,,0.00,Wunderground v.1.15,2013-05-05 22:35:00,
2013-05-05 17:40:00,65.4,57.3,30.01,WNW,300,1.0,1.0,75,0.00,,,0.00,Wunderground v.1.15,2013-05-05 22:40:00,
2013-05-05 17:45:00,65.2,57.4,30.01,WNW,283,2.0,6.0,76,0.00,,,0.00,Wunderground v.1.15,2013-05-05 22:45:00,
2013-05-05 17:50:00,65.3,57.5,30.01,NW,309,2.0,2.0,76,0.00,,,0.00,Wunderground v.1.15,2013-05-05 22:50:00,
2013-05-05 17:55:00,65.5,57.7,30.01,WNW,296,0.0,2.0,76,0.00,,,0.00,Wunderground v.1.15,2013-05-05 22:55:00,
2013-05-05 18:05:00,65.1,57.3,30.01,NW,304,1.0,2.0,76,0.00,,,0.00,Wunderground v.1.15,2013-05-05 23:05:00,
2013-05-05 18:10:00,64.8,57.4,30.01,NNW,333,1.0,1.0,77,0.00,,,0.00,Wunderground v.1.15,2013-05-05 23:10:00,
2013-05-05 18:15:00,64.5,57.5,30.01,NW,317,0.0,1.0,78,0.00,,,0.00,Wunderground v.1.15,2013-05-05 23:15:00,
2013-05-05 18:20:00,64.3,57.3,30.01,WNW,299,2.0,3.0,78,0.00,,,0.00,Wunderground v.1.15,2013-05-05 23:20:00,
2013-05-05 18:25:00,64.0,57.4,30.01,WNW,296,3.0,3.0,79,0.00,,,0.00,Wunderground v.1.15,2013-05-05 23:25:00,
2013-05-05 18:35:00,63.4,57.5,30.01,WNW,290,1.0,2.0,81,0.00,,,0.00,Wunderground v.1.15,2013-05-05 23:35:00,
2013-05-05 18:40:00,63.0,57.4,30.01,NW,315,1.0,1.0,82,0.00,,,0.00,Wunderground v.1.15,2013-05-05 23:40:00,
2013-05-05 18:45:00,62.7,57.5,30.01,NW,316,1.0,7.0,83,0.00,,,0.00,Wunderground v.1.15,2013-05-05 23:45:00,
2013-05-05 18:50:00,62.1,56.9,30.01,NW,319,2.0,9.0,83,0.00,,,0.00,Wunderground v.1.15,2013-05-05 23:50:00,
2013-05-05 18:55:00,61.3,56.4,30.01,WNW,297,3.0,9.0,84,0.00,,,0.00,Wunderground v.1.15,2013-05-05 23:55:00,
2013-05-05 19:00:00,60.8,56.3,30.01,NNW,334,3.0,3.0,85,0.00,,,0.00,Wunderground v.1.15,2013-05-06 00:00:00,
2013-05-05 19:05:00,60.1,55.6,30.01,NW,321,4.0,4.0,85,0.00,,,0.00,Wunderground v.1.15,2013-05-06 00:05:00,
2013-05-05 19:15:00,59.1,54.9,30.01,NW,311,2.0,4.0,86,0.00,,,0.00,Wunderground v.1.15,2013-05-06 00:15:00,
2013-05-05 19:20:00,58.6,54.7,30.01,West,281,2.0,6.0,87,0.00,,,0.00,Wunderground v.1.15,2013-05-06 00:20:00,
2013-05-05 19:25:00,58.5,54.6,30.02,WNW,292,2.0,6.0,87,0.00,,,0.00,Wunderground v.1.15,2013-05-06 00:25:00,
2013-05-05 19:30:00,58.1,54.6,30.02,NW,313,2.0,2.0,88,0.00,,,0.00,Wunderground v.1.15,2013-05-06 00:30:00,
2013-05-05 19:35:00,57.7,54.2,30.02,NW,317,2.0,2.0,88,0.00,,,0.00,Wunderground v.1.15,2013-05-06 00:35:00,
2013-05-05 19:40:00,57.4,53.9,30.02,NNW,344,1.0,2.0,88,0.00,,,0.00,Wunderground v.1.15,2013-05-06 00:40:00,
2013-05-05 19:45:00,57.1,53.6,30.02,NW,320,1.0,2.0,88,0.00,,,0.00,Wunderground v.1.15,2013-05-06 00:45:00,
2013-05-05 19:50:00,56.7,53.5,30.02,WNW,289,1.0,1.0,89,0.00,,,0.00,Wunderground v.1.15,2013-05-06 00:50:00,
2013-05-05 19:55:00,56.4,53.2,30.02,NNW,342,0.0,1.0,89,0.00,,,0.00,Wunderground v.1.15,2013-05-06 00:55:00,
2013-05-05 20:00:00,56.2,53.3,30.02,NW,320,1.0,1.0,90,0.00,,,0.00,Wunderground v.1.15,2013-05-06 01:00:00,
2013-05-05 20:10:00,55.8,52.9,30.02,NNW,337,0.0,0.0,90,0.00,,,0.00,Wunderground v.1.15,2013-05-06 01:10:00,
2013-05-05 20:15:00,55.6,52.7,30.02,NNW,338,0.0,0.0,90,0.00,,,0.00,Wunderground v.1.15,2013-05-06 01:15:00,
2013-05-05 20:20:00,55.3,52.7,30.02,NW,313,1.0,1.0,91,0.00,,,0.00,Wunderground v.1.15,2013-05-06 01:20:00,
2013-05-05 20:25:00,55.1,52.5,30.02,NNW,338,0.0,1.0,91,0.00,,,0.00,Wunderground v.1.15,2013-05-06 01:25:00,
2013-05-05 20:30:00,54.8,52.2,30.02,NW,325,1.0,1.0,91,0.00,,,0.00,Wunderground v.1.15,2013-05-06 01:30:00,
2013-05-05 20:40:00,54.4,51.8,30.02,NW,323,2.0,2.0,91,0.00,,,0.00,Wunderground v.1.15,2013-05-06 01:40:00,
2013-05-05 20:45:00,54.2,51.9,30.02,NW,314,1.0,2.0,92,0.00,,,0.00,Wunderground v.1.15,2013-05-06 01:45:00,
2013-05-05 20:50:00,54.1,51.8,30.02,WNW,291,0.0,0.0,92,0.00,,,0.00,Wunderground v.1.15,2013-05-06 01:50:00,
2013-05-05 20:55:00,53.9,51.6,30.02,NW,318,0.0,0.0,92,0.00,,,0.00,Wunderground v.1.15,2013-05-06 01:55:00,
2013-05-05 21:05:00,53.7,51.4,30.02,NW,313,1.0,5.0,92,0.00,,,0.00,Wunderground v.1.15,2013-05-06 02:05:00,
2013-05-05 21:10:00,53.6,51.3,30.02,WNW,298,0.0,0.0,92,0.00,,,0.00,Wunderground v.1.15,2013-05-06 02:10:00,
2013-05-05 21:15:00,53.5,51.5,30.03,NNW,341,0.0,0.0,93,0.00,,,0.00,Wunderground v.1.15,2013-05-06 02:15:00,
2013-05-05 21:20:00,53.4,51.4,30.03,WNW,300,1.0,1.0,93,0.00,,,0.00,Wunderground v.1.15,2013-05-06 02:20:00,
2013-05-05 21:25:00,53.3,51.3,30.03,WNW,300,1.0,1.0,93,0.00,,,0.00,Wunderground v.1.15,2013-05-06 02:25:00,
2013-05-05 21:30:00,53.2,51.2,30.03,NNW,332,1.0,1.0,93,0.00,,,0.00,Wunderground v.1.15,2013-05-06 02:30:00,
2013-05-05 21:35:00,53.2,51.2,30.02,NNW,334,1.0,1.0,93,0.00,,,0.00,Wunderground v.1.15,2013-05-06 02:35:00,
2013-05-05 21:40:00,53.1,51.1,30.03,WNW,292,1.0,1.0,93,0.00,,,0.00,Wunderground v.1.15,2013-05-06 02:40:00,
2013-05-05 21:50:00,52.9,50.9,30.03,North,355,1.0,1.0,93,0.00,,,0.00,Wunderground v.1.15,2013-05-06 02:50:00,
2013-05-05 21:55:00,52.8,50.8,30.03,NW,322,0.0,1.0,93,0.00,,,0.00,Wunderground v.1.15,2013-05-06 02:55:00,
2013-05-05 22:00:00,52.7,50.7,30.03,North,349,0.0,0.0,93,0.00,,,0.00,Wunderground v.1.15,2013-05-06 03:00:00,
2013-05-05 22:05:00,52.6,50.9,30.03,NW,315,1.0,5.0,94,0.00,,,0.00,Wunderground v.1.15,2013-05-06 03:05:00,
2013-05-05 22:10:00,52.5,50.8,30.03,NW,309,1.0,1.0,94,0.00,,,0.00,Wunderground v.1.15,2013-05-06 03:10:00,
2013-05-05 22:15:00,52.4,50.7,30.03,WNW,292,0.0,1.0,94,0.00,,,0.00,Wunderground v.1.15,2013-05-06 03:15:00,
2013-05-05 22:20:00,52.4,50.7,30.03,NW,317,0.0,0.0,94,0.00,,,0.00,Wunderground v.1.15,2013-05-06 03:20:00,
2013-05-05 22:25:00,52.3,50.6,30.03,NW,305,0.0,0.0,94,0.00,,,0.00,Wunderground v.1.15,2013-05-06 03:25:00,
2013-05-05 22:30:00,52.3,50.6,30.03,NNW,338,1.0,2.0,94,0.00,,,0.00,Wunderground v.1.15,2013-05-06 03:30:00,
2013-05-05 22:40:00,52.2,50.5,30.03,WNW,297,1.0,1.0,94,0.00,,,0.00,Wunderground v.1.15,2013-05-06 03:40:00,
2013-05-05 22:45:00,52.2,50.5,30.03,WNW,298,1.0,1.0,94,0.00,,,0.00,Wunderground v.1.15,2013-05-06 03:45:00,
2013-05-05 22:50:00,52.1,50.4,30.03,WNW,298,1.0,1.0,94,0.00,,,0.00,Wunderground v.1.15,2013-05-06 03:50:00,
2013-05-05 22:55:00,52.1,50.4,30.03,WNW,294,0.0,1.0,94,0.00,,,0.00,Wunderground v.1.15,2013-05-06 03:55:00,
2013-05-05 23:00:00,51.9,50.2,30.03,WNW,295,0.0,0.0,94,0.00,,,0.00,Wunderground v.1.15,2013-05-06 04:00:00,
2013-05-05 23:05:00,51.8,50.4,30.03,NW,304,0.0,0.0,95,0.00,,,0.00,Wunderground v.1.15,2013-05-06 04:05:00,
2013-05-05 23:10:00,51.7,50.0,30.03,NW,306,0.0,0.0,94,0.00,,,0.00,Wunderground v.1.15,2013-05-06 04:10:00,
2013-05-05 23:15:00,51.6,50.2,30.03,North,355,0.0,0.0,95,0.00,,,0.00,Wunderground v.1.15,2013-05-06 04:15:00,
2013-05-05 23:20:00,51.6,50.2,30.03,WNW,296,1.0,1.0,95,0.00,,,0.00,Wunderground v.1.15,2013-05-06 04:20:00,
2013-05-05 23:25:00,51.4,50.0,30.03,West,272,1.0,1.0,95,0.00,,,0.00,Wunderground v.1.15,2013-05-06 04:25:00,
2013-05-05 23:30:00,51.3,49.9,30.03,NW,305,0.0,0.0,95,0.00,,,0.00,Wunderground v.1.15,2013-05-06 04:30:00,
2013-05-05 23:35:00,51.2,49.8,30.03,WNW,299,0.0,0.0,95,0.00,,,0.00,Wunderground v.1.15,2013-05-06 04:35:00,
2013-05-05 23:45:00,51.0,49.6,30.03,NNW,327,1.0,1.0,95,0.00,,,0.00,Wunderground v.1.15,2013-05-06 04:45:00,
2013-05-05 23:50:00,51.0,49.6,30.03,WNW,300,0.0,0.0,95,0.00,,,0.00,Wunderground v.1.15,2013-05-06 04:50:00,
2013-05-05 23:55:00,50.9,49.5,30.03,NW,311,0.0,0.0,95,0.00,,,0.00,Wunderground v.1.15,2013-05-06 04:55:00,